FW1312 Weather Reports


Display with metric or nautical units.
time (UTC)temp
F
wind
direction
speed
MPH
gust
MPH
rain 1hr
in
rain 24hr
in
rain mn
in
humidity
%
barometer
mb
20260901164603 89 106 4.0 14.0 0.00 0.00 0.00 77 1015.2
20260901163026 88 128 3.0 8.0 0.00 0.00 0.00 78 1015.3
20260901161548 88 133 0.0 9.0 0.00 0.00 0.00 79 1015.4
20260901160017 87 269 0.0 5.0 0.00 0.00 0.00 80 1015.5
20260901154506 86 335 2.0 8.0 0.00 0.00 0.00 80 1015.4
20260901153121 86 40 3.0 6.0 0.00 0.00 0.00 81 1015.6
20260901151517 85 273 1.0 7.0 0.00 0.00 0.00 81 1015.5
20260901150054 84 300 2.0 6.0 0.00 0.00 0.00 81 1015.6
20260901144600 83 302 2.0 6.0 0.00 0.00 0.00 81 1015.6
20260901143019 83 309 3.0 6.0 0.00 0.00 0.00 81 1015.8
20260901141541 81 308 0.0 5.0 0.00 0.00 0.00 80 1015.8
20260901140034 80 360 0.0 4.0 0.00 0.00 0.00 80 1015.9
20260901134504 79 49 1.0 3.0 0.00 0.00 0.00 79 1015.9
20260901133042 78 50 0.0 3.0 0.00 0.00 0.00 79 1016.0
20260901131512 77 51 0.0 3.0 0.00 0.00 0.00 78 1015.9
20260901130103 75 48 2.0 5.0 0.00 0.00 0.00 78 1015.7
20260901124511 74 21 0.0 3.0 0.00 0.00 0.00 77 1015.5
20260901123050 74 30 2.0 3.0 0.00 0.00 0.00 77 1015.4
20260901121520 74 32 0.0 0.0 0.00 0.00 0.00 76 1015.2
20260901120045 74 32 0.0 0.0 0.00 0.00 0.00 76 1015.1
20260901114511 75 135 0.0 0.0 0.00 0.00 0.00 75 1014.9
20260901113034 75 136 0.0 0.0 0.00 0.00 0.00 75 1014.8
20260901111505 75 135 0.0 0.0 0.00 0.00 0.00 75 1014.8
20260901110111 75 135 0.0 0.0 0.00 0.00 0.00 74 1014.6
20260901033036 86 115 3.0 7.0 0.00 0.00 0.00 57 1013.6
20260901031553 86 108 5.0 8.0 0.00 0.00 0.00 56 1013.5
20260901030036 87 182 2.0 6.0 0.00 0.00 0.00 55 1013.3
20260901024534 87 143 3.0 10.0 0.00 0.00 0.00 54 1013.0
20260901023038 87 131 2.0 9.0 0.00 0.00 0.00 53 1012.9
20260901021547 88 137 4.0 9.0 0.00 0.00 0.00 52 1012.6
20260901020034 89 167 3.0 8.0 0.00 0.00 0.00 51 1012.4
20260901014535 89 136 4.0 12.0 0.00 0.00 0.00 50 1012.3
20260901013019 90 181 4.0 13.0 0.00 0.00 0.00 48 1012.4
20260901011533 91 130 7.0 16.0 0.00 0.00 0.00 48 1012.4
20260901010041 93 134 7.0 19.0 0.00 0.00 0.00 47 1012.2
20260901004506 94 111 2.0 8.0 0.00 0.00 0.00 47 1011.9
20260901003006 95 113 4.0 8.0 0.00 0.00 0.00 47 1011.9
20260901001602 95 126 3.0 7.0 0.00 0.00 0.00 47 1011.9
20260901000017 96 117 3.0 8.0 0.00 0.00 0.00 47 1011.8
20260831234500 97 101 2.0 9.0 0.00 0.00 0.00 47 1011.8
20260831233049 97 132 3.0 12.0 0.00 0.00 0.00 47 1011.7
20260831231535 97 117 3.0 8.0 0.00 0.00 0.00 48 1011.8
20260831230118 97 101 4.0 9.0 0.00 0.00 0.00 48 1011.8
20260831224530 97 102 5.0 10.0 0.00 0.00 0.00 49 1011.9
20260831223020 97 155 3.0 5.0 0.00 0.00 0.00 49 1012.0
20260831221554 97 153 3.0 11.0 0.00 0.00 0.00 50 1012.1
20260831220055 97 78 4.0 11.0 0.00 0.00 0.00 51 1012.1
20260831214537 97 94 8.0 13.0 0.00 0.00 0.00 51 1012.3
20260831213038 98 60 4.0 10.0 0.00 0.00 0.00 52 1012.3
20260831211602 97 76 2.0 7.0 0.00 0.00 0.00 54 1012.5
20260831210052 97 132 4.0 11.0 0.00 0.00 0.00 55 1012.7
20260831204515 97 58 3.0 13.0 0.00 0.00 0.00 56 1012.9
20260831203046 97 166 3.0 11.0 0.00 0.00 0.00 57 1013.2
20260831201528 96 139 8.0 14.0 0.00 0.00 0.00 59 1013.4
20260831200038 96 216 4.0 10.0 0.00 0.00 0.00 60 1013.6
20260831194615 95 142 7.0 14.0 0.00 0.00 0.00 62 1013.9
20260831193034 94 115 5.0 13.0 0.00 0.00 0.00 63 1014.1
20260831191543 94 126 4.0 9.0 0.00 0.00 0.00 65 1014.3
20260831190029 94 129 7.0 13.0 0.00 0.00 0.00 66 1014.6
20260831184532 94 165 8.0 13.0 0.00 0.00 0.00 68 1014.8
20260831183100 93 115 6.0 13.0 0.00 0.00 0.00 70 1015.0
20260831181539 93 100 9.0 16.0 0.00 0.00 0.00 71 1015.2
20260831180058 92 109 7.0 14.0 0.00 0.00 0.00 73 1015.3
20260831174549 92 99 6.0 10.0 0.00 0.00 0.00 74 1015.4
20260831173021 91 123 3.0 12.0 0.00 0.00 0.00 75 1015.7
20260831171537 91 108 3.0 11.0 0.00 0.00 0.00 76 1015.8
20260831170031 90 221 1.0 7.0 0.00 0.00 0.00 78 1016.0